Tampa, FL

9:45 PM EST on February 26, 2017 (GMT -0500)
Tampa International

Weather History for KTPA - July, 2013

Change the Weather History Date:

Thursday, July 11, 2013

  Actual Average Record
Temperature  
Mean Temperature 82 °F 83 °F  
Max Temperature 87 °F 90 °F 97 °F (2015)
Min Temperature 76 °F 76 °F 68 °F (1898)
Degree Days  
Heating Degree Days 0 0  
Month to date heating degree days 0 0  
Since 1 June heating degree days 0 0  
Since 1 July heating degree days 0 0  
Cooling Degree Days 17 18  
Month to date cooling degree days 192 198  
Year to date cooling degree days 1690 1591  
Since 1 June cooling degree days 715 714  
Growing Degree Days 30 (Base 50)    
Moisture  
Dew Point 73 °F    
Average Humidity 80    
Maximum Humidity 94    
Minimum Humidity 65    
Precipitation  
Precipitation T in 0.23 in 2.68 in (1898)
Month to date precipitation 4.22 2.72  
Year to date precipitation 24.64 21.60  
Sea Level Pressure  
Sea Level Pressure 29.99 in    
Wind  
Wind Speed 6 mph (South)    
Max Wind Speed 18 mph    
Max Gust Speed 22 mph    
Visibility 10 miles    
Events Thunderstorm    
T = Trace of Precipitation, MM = Missing Value Source: NWS Daily Summary

Daily Weather History Graph

Daily Weather History Graph

Search for Another Location

Airport or City:

Trip Planner

Search our weather history database for the weather conditions in past years. The results will help you decide how hot, cold, wet, or windy it might be!

Date:

Astronomy

Jul. 11, 2013 Rise Set
Actual Time 6:41 AM EDT 8:29 PM EDT
Civil Twilight 6:15 AM EDT 8:55 PM EDT
Nautical Twilight 5:43 AM EDT 9:27 PM EDT
Astronomical Twilight 5:10 AM EDT 10:00 PM EDT
Moon 9:39 AM EDT (7/11) 10:32 PM EDT (7/11)
Length of Visible Light 14h 40m
Length of Day
13h 47m
Waxing Crescent, 10% of the Moon is Illuminated
Jul 11
Waxing Crescent
Jul 15
First Quarter
Jul 22
Full
Jul 29
Last Quarter
Aug 6
New

Hourly Weather History & Observations

Time (EDT) Temp. Heat Index Dew Point Humidity Pressure Visibility Wind Dir Wind Speed Gust Speed Precip Events Conditions
12:53 AM 75.9 °F - 73.0 °F 91% 30.04 in 10.0 mi Calm Calm - N/A   Mostly Cloudy
1:53 AM 75.9 °F - 73.0 °F 91% 30.02 in 10.0 mi Calm Calm - N/A   Scattered Clouds
2:40 AM 75.2 °F - 73.4 °F 94% 30.01 in 10.0 mi Calm Calm - N/A   Mostly Cloudy
2:53 AM 75.9 °F - 73.9 °F 94% 30.01 in 10.0 mi Calm Calm - N/A   Mostly Cloudy
3:16 AM 75.2 °F - 73.4 °F 94% 30.00 in 10.0 mi Calm Calm - N/A   Mostly Cloudy
3:43 AM 75.2 °F - 73.4 °F 94% 30.00 in 10.0 mi Calm Calm - N/A   Scattered Clouds
3:53 AM 75.9 °F - 73.9 °F 94% 30.00 in 10.0 mi Calm Calm - N/A   Scattered Clouds
4:48 AM 77.0 °F - 75.2 °F 94% 30.00 in 10.0 mi SE 5.8 mph - N/A   Mostly Cloudy
4:53 AM 77.0 °F - 75.0 °F 94% 29.99 in 10.0 mi SE 5.8 mph - N/A   Mostly Cloudy
5:15 AM 77.0 °F - 73.4 °F 89% 29.99 in 10.0 mi SE 5.8 mph - N/A   Partly Cloudy
5:53 AM 77.0 °F - 73.0 °F 88% 30.01 in 10.0 mi South 3.5 mph - N/A   Partly Cloudy
6:53 AM 77.0 °F - 73.0 °F 88% 30.02 in 10.0 mi SSE 3.5 mph - N/A   Partly Cloudy
7:53 AM 78.1 °F - 73.9 °F 87% 30.01 in 10.0 mi SSE 5.8 mph - N/A   Scattered Clouds
8:53 AM 81.0 °F 86.2 °F 73.9 °F 79% 30.01 in 10.0 mi SSE 6.9 mph - N/A   Scattered Clouds
9:53 AM 82.9 °F 89.4 °F 73.9 °F 74% 30.01 in 10.0 mi SSE 8.1 mph - N/A   Scattered Clouds
10:53 AM 84.0 °F 91.2 °F 73.9 °F 72% 30.02 in 10.0 mi SSW 10.4 mph - N/A   Scattered Clouds
11:46 AM 80.6 °F 85.4 °F 73.4 °F 79% 30.03 in 10.0 mi West 13.8 mph 21.9 mph N/A   Scattered Clouds
11:53 AM 82.0 °F 87.4 °F 73.0 °F 74% 30.03 in 10.0 mi WSW 15.0 mph - N/A   Mostly Cloudy
12:53 PM 82.0 °F 88.6 °F 75.0 °F 79% 30.02 in 10.0 mi SW 9.2 mph - N/A   Scattered Clouds
1:53 PM 82.9 °F 87.5 °F 71.1 °F 67% 30.00 in 10.0 mi SSW 5.8 mph - N/A   Mostly Cloudy
2:53 PM 84.0 °F 91.9 °F 75.0 °F 74% 29.99 in 10.0 mi South 8.1 mph - N/A   Mostly Cloudy
3:53 PM 86.0 °F 93.0 °F 73.0 °F 65% 29.96 in 10.0 mi WSW 9.2 mph - N/A   Scattered Clouds
4:53 PM 84.0 °F 91.2 °F 73.9 °F 72% 29.95 in 10.0 mi WNW 8.1 mph - 0.00 in   Mostly Cloudy
5:53 PM 84.9 °F 92.1 °F 73.9 °F 69% 29.94 in 10.0 mi West 6.9 mph - 0.00 in   Mostly Cloudy
6:53 PM 84.0 °F 89.6 °F 72.0 °F 67% 29.96 in 10.0 mi SW 3.5 mph - N/A   Mostly Cloudy
7:07 PM 82.4 °F 87.2 °F 71.6 °F 70% 29.95 in 9.0 mi Variable 4.6 mph - N/A Thunderstorm Thunderstorm
7:53 PM 80.1 °F 84.5 °F 73.9 °F 81% 29.95 in 10.0 mi Calm Calm - 0.00 in   Mostly Cloudy
8:53 PM 79.0 °F - 71.1 °F 77% 29.96 in 10.0 mi South 8.1 mph - N/A   Scattered Clouds
9:53 PM 80.1 °F 83.6 °F 71.1 °F 74% 29.97 in 10.0 mi SSE 4.6 mph - 0.00 in   Mostly Cloudy
10:53 PM 80.1 °F 84.2 °F 73.0 °F 79% 29.97 in 10.0 mi South 3.5 mph - N/A   Scattered Clouds
11:53 PM 80.1 °F 84.2 °F 73.0 °F 79% 29.97 in 10.0 mi SSE 3.5 mph - N/A   Scattered Clouds